SUN9901 LMML-LMML

Flight info

Callsign SUN9901
Flight time 0h 25m
Altitude 4000
Route N/A
Aircraft B738/M-SDE3FGHIRWY/LB1

Departure

Time 2026-05-04 12:51
Airport Malta International Airport (LMML)

Arrival

Time 2026-05-04 13:16
Airport Malta International Airport (LMML)
Time Latitude Longitude Altitude Speed Heading
2026-05-04 12:51 36.01802 14.20150 3982 ft 248 kts 334°
2026-05-04 12:51 36.03404 14.19376 3967 ft 248 kts 351°
2026-05-04 12:51 36.05090 14.19570 3975 ft 244 kts 22°
2026-05-04 12:52 36.06398 14.20765 3984 ft 227 kts 55°
2026-05-04 12:52 36.06845 14.22507 3966 ft 206 kts 98°
2026-05-04 12:52 36.06246 14.23972 3983 ft 192 kts 145°
2026-05-04 12:52 36.05080 14.24779 3995 ft 193 kts 150°
2026-05-04 12:53 36.03975 14.25715 3989 ft 191 kts 144°
2026-05-04 12:53 36.02923 14.26706 3983 ft 190 kts 143°
2026-05-04 12:53 36.01910 14.27751 3992 ft 190 kts 139°
2026-05-04 12:53 36.00945 14.28860 3989 ft 189 kts 137°
2026-05-04 12:54 36.00010 14.29992 3991 ft 188 kts 137°
2026-05-04 12:54 35.99084 14.31134 3987 ft 191 kts 136°
2026-05-04 12:54 35.98124 14.32325 3726 ft 193 kts 136°
2026-05-04 12:54 35.97202 14.33478 3507 ft 187 kts 137°
2026-05-04 12:55 35.96297 14.34601 3224 ft 181 kts 137°
2026-05-04 12:55 35.95431 14.35677 2986 ft 174 kts 136°
2026-05-04 12:55 35.94619 14.36687 2790 ft 158 kts 137°
2026-05-04 12:55 35.93897 14.37588 2597 ft 136 kts 139°
2026-05-04 12:56 35.93283 14.38352 2427 ft 119 kts 139°
2026-05-04 12:56 35.92693 14.39085 2244 ft 119 kts 138°
2026-05-04 12:56 35.92120 14.39799 2104 ft 117 kts 140°
2026-05-04 12:56 35.91556 14.40498 1922 ft 113 kts 140°
2026-05-04 12:57 35.90998 14.41196 1804 ft 117 kts 140°
2026-05-04 12:57 35.90412 14.41924 1641 ft 120 kts 138°
2026-05-04 12:57 35.89822 14.42659 1458 ft 119 kts 139°
2026-05-04 12:57 35.89241 14.43381 1311 ft 119 kts 139°
2026-05-04 12:58 35.88651 14.44117 1155 ft 121 kts 138°
2026-05-04 12:58 35.88063 14.44849 948 ft 121 kts 137°
2026-05-04 12:58 35.87484 14.45617 812 ft 126 kts 138°
2026-05-04 12:58 35.86867 14.46375 687 ft 125 kts 138°
2026-05-04 12:59 35.86265 14.47118 533 ft 119 kts 138°
2026-05-04 12:59 35.85680 14.47837 328 ft 114 kts 139°
2026-05-04 12:59 35.85168 14.48465 272 ft 94 kts 134°
2026-05-04 12:59 35.84758 14.48970 258 ft 73 kts 135°
2026-05-04 13:00 35.84439 14.49369 258 ft 58 kts 134°
2026-05-04 13:00 35.84150 14.49724 254 ft 72 kts 134°
2026-05-04 13:00 35.83678 14.50311 253 ft 137 kts 136°
2026-05-04 13:00 35.82837 14.51297 1202 ft 170 kts 139°
2026-05-04 13:01 35.81963 14.52328 2945 ft 176 kts 137°
2026-05-04 13:01 35.81045 14.53425 3451 ft 207 kts 137°
2026-05-04 13:01 35.79990 14.54645 3187 ft 206 kts 137°
2026-05-04 13:01 35.78901 14.55936 3083 ft 231 kts 138°
2026-05-04 13:02 35.77580 14.57176 3005 ft 244 kts 158°
2026-05-04 13:02 35.75921 14.57477 2997 ft 244 kts 188°
2026-05-04 13:02 35.74379 14.56683 3023 ft 245 kts 217°
2026-05-04 13:02 35.73359 14.55014 3031 ft 247 kts 244°
2026-05-04 13:03 35.72741 14.53046 3009 ft 247 kts 248°
2026-05-04 13:03 35.72172 14.51050 3003 ft 247 kts 252°
2026-05-04 13:03 35.72112 14.48946 3001 ft 252 kts 281°
2026-05-04 13:03 35.72901 14.47025 3030 ft 255 kts 304°
2026-05-04 13:04 35.73953 14.45266 3011 ft 256 kts 307°
2026-05-04 13:04 35.75332 14.43896 3030 ft 256 kts 330°
2026-05-04 13:04 35.76921 14.42905 3010 ft 257 kts 333°
2026-05-04 13:04 35.78544 14.41950 3034 ft 262 kts 333°
2026-05-04 13:05 35.80202 14.40991 3032 ft 263 kts 333°
2026-05-04 13:05 35.81858 14.40038 3008 ft 263 kts 333°
2026-05-04 13:05 35.83515 14.39095 3020 ft 262 kts 334°
2026-05-04 13:05 35.85166 14.38144 3045 ft 262 kts 333°
2026-05-04 13:06 35.86836 14.37207 2998 ft 266 kts 335°
2026-05-04 13:06 35.88437 14.36107 2985 ft 262 kts 319°
2026-05-04 13:06 35.89776 14.34603 2995 ft 259 kts 314°
2026-05-04 13:06 35.91047 14.33031 2966 ft 258 kts 307°
2026-05-04 13:07 35.92105 14.31274 2979 ft 254 kts 305°
2026-05-04 13:07 35.93153 14.29546 2976 ft 250 kts 305°
2026-05-04 13:07 35.94195 14.27818 2984 ft 253 kts 304°
2026-05-04 13:07 35.95254 14.26070 2995 ft 255 kts 305°
2026-05-04 13:08 35.96321 14.24312 2994 ft 257 kts 304°
2026-05-04 13:08 35.97410 14.22551 2995 ft 258 kts 304°
2026-05-04 13:08 35.98555 14.20841 2973 ft 260 kts 316°
2026-05-04 13:08 36.00146 14.19812 2978 ft 261 kts 347°
2026-05-04 13:09 36.01948 14.19856 2972 ft 262 kts 17°
2026-05-04 13:09 36.03461 14.20939 3002 ft 244 kts 49°
2026-05-04 13:09 36.04257 14.22657 2963 ft 219 kts 82°
2026-05-04 13:09 36.04193 14.24401 2964 ft 194 kts 115°
2026-05-04 13:10 36.03393 14.25638 2999 ft 183 kts 140°
2026-05-04 13:10 36.02510 14.26752 2998 ft 181 kts 135°
2026-05-04 13:10 36.01630 14.27883 3000 ft 185 kts 137°
2026-05-04 13:10 36.00741 14.29004 2988 ft 184 kts 137°
2026-05-04 13:11 35.99848 14.30134 2973 ft 183 kts 138°
2026-05-04 13:11 35.98957 14.31254 2986 ft 182 kts 136°
2026-05-04 13:11 35.98067 14.32370 2979 ft 182 kts 137°
2026-05-04 13:11 35.97174 14.33489 3032 ft 187 kts 137°
2026-05-04 13:12 35.96254 14.34634 2973 ft 184 kts 138°
2026-05-04 13:12 35.95387 14.35721 2967 ft 169 kts 137°
2026-05-04 13:12 35.94608 14.36693 2988 ft 146 kts 138°
2026-05-04 13:12 35.93945 14.37535 2836 ft 134 kts 136°
2026-05-04 13:13 35.93335 14.38376 2544 ft 131 kts 134°
2026-05-04 13:13 35.92706 14.39180 2161 ft 130 kts 142°
2026-05-04 13:13 35.92025 14.39935 1836 ft 129 kts 139°
2026-05-04 13:13 35.91385 14.40713 1591 ft 128 kts 140°
2026-05-04 13:14 35.90783 14.41455 1548 ft 124 kts 137°
2026-05-04 13:14 35.90179 14.42280 1489 ft 133 kts 135°
2026-05-04 13:14 35.89543 14.43123 1464 ft 135 kts 139°
2026-05-04 13:14 35.88886 14.43924 1322 ft 129 kts 140°
2026-05-04 13:15 35.88238 14.44661 1049 ft 127 kts 139°
2026-05-04 13:15 35.87616 14.45441 896 ft 128 kts 138°
2026-05-04 13:15 35.86983 14.46226 710 ft 130 kts 138°
2026-05-04 13:15 35.86350 14.47004 537 ft 126 kts 136°
2026-05-04 13:16 35.85744 14.47759 336 ft 124 kts 139°
2026-05-04 13:16 35.85149 14.48490 271 ft 105 kts 135°
2026-05-04 13:16 35.84936 14.48754 258 ft 0 kts 135°
2026-05-04 13:16 35.84925 14.48767 258 ft 9 kts 135°
2026-05-04 13:17 35.84809 14.48910 258 ft 51 kts 135°
2026-05-04 13:17 35.84273 14.49588 292 ft 161 kts 136°
2026-05-04 13:17 35.83403 14.50679 1273 ft 189 kts 136°
2026-05-04 13:17 35.82432 14.51920 2393 ft 203 kts 135°
2026-05-04 13:18 35.81468 14.53127 2561 ft 188 kts 145°
2026-05-04 13:18 35.80254 14.53675 2717 ft 207 kts 181°
2026-05-04 13:18 35.78849 14.53158 2859 ft 214 kts 213°
2026-05-04 13:18 35.77892 14.51736 2977 ft 220 kts 240°
2026-05-04 13:19 35.77244 14.50045 3017 ft 219 kts 243°
2026-05-04 13:19 35.76619 14.48312 3020 ft 223 kts 244°
2026-05-04 13:19 35.75983 14.46551 3011 ft 227 kts 244°
2026-05-04 13:19 35.75338 14.44779 3019 ft 226 kts 243°
2026-05-04 13:20 35.74802 14.42973 3009 ft 226 kts 260°
2026-05-04 13:20 35.75022 14.41061 3011 ft 231 kts 293°
2026-05-04 13:20 35.75992 14.39490 3033 ft 233 kts 312°
2026-05-04 13:20 35.77136 14.38058 3026 ft 235 kts 313°
2026-05-04 13:21 35.78308 14.36646 3017 ft 237 kts 313°
2026-05-04 13:21 35.79498 14.35236 3011 ft 237 kts 314°
2026-05-04 13:21 35.80682 14.33825 3022 ft 237 kts 313°
2026-05-04 13:21 35.81867 14.32420 3012 ft 236 kts 313°
2026-05-04 13:22 35.83058 14.31021 3002 ft 236 kts 313°
2026-05-04 13:22 35.84252 14.29631 3005 ft 236 kts 314°
2026-05-04 13:22 35.85446 14.28239 3014 ft 235 kts 314°
2026-05-04 13:22 35.86623 14.26849 2986 ft 234 kts 314°
2026-05-04 13:23 35.87779 14.25472 2989 ft 234 kts 314°
2026-05-04 13:23 35.88970 14.24057 2991 ft 236 kts 314°
2026-05-04 13:23 35.90152 14.22645 2989 ft 237 kts 314°
2026-05-04 13:23 35.91305 14.21248 2973 ft 235 kts 314°
2026-05-04 13:24 35.92466 14.19840 2974 ft 233 kts 313°
2026-05-04 13:24 35.93628 14.18445 2987 ft 233 kts 314°
2026-05-04 13:24 35.94798 14.17040 2984 ft 236 kts 313°
2026-05-04 13:25 35.97170 14.14213 2982 ft 237 kts 314°
2026-05-04 13:25 35.98351 14.12791 2970 ft 238 kts 314°
2026-05-04 13:25 35.99535 14.11371 2980 ft 238 kts 313°
2026-05-04 13:25 36.00729 14.09953 2975 ft 239 kts 316°
2026-05-04 13:26 36.02205 14.09018 2967 ft 242 kts 347°
2026-05-04 13:26 36.03860 14.09160 2970 ft 240 kts 20°
2026-05-04 13:26 36.05190 14.10325 2964 ft 236 kts 54°
2026-05-04 13:26 36.05981 14.12069 2959 ft 233 kts 72°
2026-05-04 13:27 36.06113 14.14039 2978 ft 232 kts 99°
2026-05-04 13:27 36.05805 14.15987 2986 ft 229 kts 103°
2026-05-04 13:27 36.05489 14.17912 2976 ft 229 kts 104°
2026-05-04 13:27 36.05177 14.19842 3007 ft 231 kts 103°
2026-05-04 13:28 36.04885 14.21756 2975 ft 217 kts 104°
2026-05-04 13:28 36.04606 14.23505 2959 ft 198 kts 107°
2026-05-04 13:28 36.03973 14.24896 2984 ft 183 kts 137°
2026-05-04 13:28 36.03084 14.26045 2990 ft 186 kts 136°
2026-05-04 13:29 36.02194 14.27220 3003 ft 188 kts 136°
2026-05-04 13:29 36.01287 14.28381 2969 ft 186 kts 136°
2026-05-04 13:29 36.00397 14.29499 2968 ft 181 kts 138°
2026-05-04 13:29 35.99515 14.30598 2983 ft 181 kts 137°
2026-05-04 13:30 35.98624 14.31706 2996 ft 182 kts 139°
2026-05-04 13:30 35.97727 14.32821 3004 ft 184 kts 137°
2026-05-04 13:30 35.96803 14.33964 2990 ft 192 kts 138°
2026-05-04 13:30 35.95899 14.35127 2976 ft 184 kts 136°
2026-05-04 13:31 35.95013 14.36216 2874 ft 182 kts 137°
2026-05-04 13:31 35.94107 14.37328 2640 ft 178 kts 137°
2026-05-04 13:31 35.93257 14.38381 2419 ft 171 kts 138°
2026-05-04 13:31 35.92429 14.39412 2197 ft 167 kts 138°
2026-05-04 13:32 35.91619 14.40421 1965 ft 162 kts 137°
2026-05-04 13:32 35.90851 14.41379 1773 ft 152 kts 139°
2026-05-04 13:32 35.90145 14.42259 1567 ft 137 kts 139°
2026-05-04 13:32 35.89503 14.43057 1390 ft 126 kts 139°
2026-05-04 13:33 35.88886 14.43822 1208 ft 126 kts 138°
2026-05-04 13:33 35.88275 14.44610 1017 ft 129 kts 137°
2026-05-04 13:33 35.87635 14.45420 857 ft 135 kts 137°
2026-05-04 13:33 35.87176 14.45978 751 ft 138 kts 138°
2026-05-04 13:34 35.86497 14.46804 568 ft 133 kts 136°
2026-05-04 13:34 35.85885 14.47594 366 ft 129 kts 140°
2026-05-04 13:34 35.85258 14.48358 272 ft 120 kts 136°
2026-05-04 13:34 35.84703 14.49036 258 ft 117 kts 135°
2026-05-04 13:35 35.83960 14.49986 654 ft 167 kts 136°
2026-05-04 13:35 35.82439 14.52007 2368 ft 163 kts 149°
2026-05-04 13:35 35.81253 14.52263 2565 ft 194 kts 190°
2026-05-04 13:36 35.80056 14.51543 2689 ft 191 kts 213°
2026-05-04 13:36 35.78997 14.50527 2783 ft 195 kts 226°
2026-05-04 13:36 35.78500 14.48988 2887 ft 202 kts 266°
2026-05-04 13:36 35.78769 14.47288 2972 ft 211 kts 294°
2026-05-04 13:37 35.79585 14.45767 3023 ft 214 kts 303°
2026-05-04 13:37 35.80454 14.44285 3022 ft 213 kts 303°
2026-05-04 13:37 35.81341 14.42817 3024 ft 215 kts 303°
2026-05-04 13:37 35.82238 14.41340 3015 ft 215 kts 303°
2026-05-04 13:38 35.83134 14.39869 3008 ft 214 kts 303°
2026-05-04 13:38 35.84028 14.38406 3024 ft 214 kts 304°
2026-05-04 13:38 35.84919 14.36931 3014 ft 215 kts 303°
2026-05-04 13:38 35.85807 14.35448 3017 ft 215 kts 303°
2026-05-04 13:39 35.86708 14.33959 2986 ft 216 kts 304°
2026-05-04 13:39 35.87587 14.32476 2979 ft 212 kts 304°
2026-05-04 13:39 35.88454 14.31001 2991 ft 212 kts 304°
2026-05-04 13:39 35.89327 14.29530 2989 ft 214 kts 303°
2026-05-04 13:40 35.90213 14.28055 2991 ft 214 kts 303°
2026-05-04 13:40 35.91262 14.26763 2979 ft 215 kts 328°
2026-05-04 13:40 35.92589 14.25936 2990 ft 214 kts 333°
2026-05-04 13:40 35.93941 14.25159 2992 ft 215 kts 333°
2026-05-04 13:41 35.95361 14.24549 2975 ft 219 kts 354°
2026-05-04 13:41 35.96833 14.24910 2970 ft 219 kts 31°
2026-05-04 13:41 35.97867 14.26224 2989 ft 214 kts 65°
2026-05-04 13:42 35.97882 14.29629 2975 ft 193 kts 102°
2026-05-04 13:42 35.97646 14.31232 2981 ft 187 kts 102°
2026-05-04 13:42 35.97394 14.32808 3027 ft 188 kts 107°
2026-05-04 13:42 35.96741 14.34194 2960 ft 184 kts 143°
2026-05-04 13:43 35.95737 14.35102 2979 ft 181 kts 138°
2026-05-04 13:43 35.94948 14.36241 2864 ft 166 kts 134°
2026-05-04 13:43 35.94206 14.37205 2678 ft 143 kts 137°
2026-05-04 13:43 35.93546 14.38026 2469 ft 128 kts 139°
2026-05-04 13:44 35.92931 14.38789 2337 ft 126 kts 139°
2026-05-04 13:44 35.92314 14.39557 2176 ft 127 kts 138°
2026-05-04 13:44 35.91702 14.40318 1992 ft 122 kts 140°
2026-05-04 13:44 35.91103 14.41064 1848 ft 124 kts 140°
2026-05-04 13:45 35.90490 14.41826 1664 ft 127 kts 140°
2026-05-04 13:45 35.89871 14.42620 1496 ft 129 kts 136°
2026-05-04 13:45 35.89260 14.43415 1344 ft 122 kts 139°
2026-05-04 13:45 35.88645 14.44155 1178 ft 125 kts 139°
2026-05-04 13:46 35.88040 14.44919 966 ft 126 kts 136°
2026-05-04 13:46 35.87402 14.45694 806 ft 130 kts 139°
2026-05-04 13:46 35.86776 14.46477 647 ft 126 kts 139°
2026-05-04 13:46 35.86167 14.47224 468 ft 125 kts 137°
2026-05-04 13:47 35.85560 14.47985 301 ft 123 kts 140°
2026-05-04 13:47 35.85016 14.48651 264 ft 87 kts 134°
2026-05-04 13:47 35.84779 14.48965 258 ft 12 kts 91°
2026-05-04 13:47 35.84831 14.48981 258 ft 10 kts 348°
2026-05-04 13:48 35.84903 14.48982 258 ft 11 kts 23°
2026-05-04 13:48 35.84925 14.49065 258 ft 11 kts 118°
2026-05-04 13:48 35.84870 14.49140 258 ft 12 kts 136°
2026-05-04 13:48 35.84806 14.49216 258 ft 13 kts 135°
2026-05-04 13:49 35.84737 14.49303 258 ft 15 kts 134°
2026-05-04 13:49 35.84664 14.49395 258 ft 15 kts 135°
2026-05-04 13:49 35.84597 14.49478 258 ft 9 kts 130°
2026-05-04 13:49 35.84604 14.49550 258 ft 10 kts 52°
2026-05-04 13:50 35.84664 14.49577 258 ft 10 kts 341°
2026-05-04 13:50 35.84727 14.49523 258 ft 12 kts 317°
2026-05-04 13:50 35.84780 14.49514 258 ft 8 kts
2026-05-04 13:50 35.84808 14.49514 258 ft 2 kts 360°
2026-05-04 13:51 35.84810 14.49514 258 ft 0 kts 360°